Погода в Яковлеве

Россия / Оренбургская область     54°14′57″N   53°01′44″E
темп.,
°C
ветер,
м/с
пор.,
м/с
влажн.,
%
обл.,
%
осадки,
мм/ч
давл.,
гПа
погр.,
м
24 января, вс
вс2423:00−13ю61194100 0.4 1026311
02:00−12ю51095100 0.2 1026276
05:00−10ю5895100 0.7 1025262
08:00−7ю4796100 1.0 1023198
11:00−4ююз3697100 1.7 1024184
14:000юз4999100 0.6 1024320
17:00+1юз511100100 0.6 1025312
20:000юз5997100 0.1 1026336
25 января, пн
пн2523:00−2юз61195100 0.3 1028355
02:00−2юз6119794 0.1 1029350
05:00−2юз7119796 0.1 1030385
08:00−3юз71097100 0.0 1031413
11:00−2ююз61097100 0.0 1032564
14:00−2ююз6995100 0.0 1032618
17:00−2ююз6994100 0.1 1032613
20:00−3ю51096100 0.0 1031436
26 января, вт
вт2623:00−4ю71194100 0.1 1031508
02:00−3ююз61295100 0.1 1031688
05:00−3ююз61293100 0.1 1031666
08:00−3ююз61195100 0.1 1030581
11:00−3ююз71093100 0.1 1030540
14:00−4ююз71196100 0.1 1030492
17:00−6ю61195100 0.1 1030428
20:00−8ю61394100 0.0 1030325
27 января, ср
ср2723:00−8ю71393100 0.1 1029342
02:00−8ю61394100 0.0 1030346
05:00−9ю51295100 0.0 1030279
08:00−10ю51396100 0.0 1029283
11:00−8ю71395100 0.1 1028349
14:00−7ю71393100 0.0 1028375
17:00−7ю61392100 0.0 1028354
20:00−8ю51393100 0.0 1028305
28 января, чт
чт2823:00−9ю61492100 0.0 1027300
02:00−8ю61390100 0.0 1027324
05:00−7ю61390100 0.0 1026341
08:00−9ююв51390100 0.0 1025309
11:00−8ююв51390100 0.0 1024350
14:00−7ю71486100 0.0 1024381
17:00−8ююв51289100 0.0 1022338
20:00−9ююв41389100 0.0 1022275